| time (UTC) | temp F | wind direction | speed knots | gust knots | rain 1hr in | rain 24hr in | rain mn in | humidity % | barometer mb |
| 20260507223050 | 49 | 0 | 0.0 | 0.9 | 0.00 | 0.00 | 0.00 | 88 | 1015.5 |
| 20260507221547 | 50 | 0 | 0.0 | 0.9 | 0.00 | 0.00 | 0.00 | 87 | 1015.5 |
| 20260507220051 | 50 | 143 | 0.0 | 1.7 | 0.00 | 0.00 | 0.00 | 86 | 1015.5 |
| 20260507214551 | 51 | 159 | 0.9 | 3.5 | 0.00 | 0.00 | 0.00 | 85 | 1015.5 |
| 20260507213100 | 51 | 114 | 0.9 | 5.2 | 0.00 | 0.00 | 0.00 | 85 | 1015.5 |
| 20260507211557 | 52 | 92 | 1.7 | 5.2 | 0.00 | 0.00 | 0.00 | 83 | 1015.5 |
| 20260507210053 | 52 | 96 | 0.0 | 6.1 | 0.00 | 0.00 | 0.00 | 83 | 1015.4 |
| 20260507204556 | 52 | 99 | 1.7 | 6.1 | 0.00 | 0.00 | 0.00 | 83 | 1015.4 |
| 20260507203058 | 52 | 0 | 0.0 | 2.6 | 0.00 | 0.00 | 0.00 | 83 | 1015.3 |
| 20260507201601 | 53 | 127 | 0.9 | 5.2 | 0.00 | 0.00 | 0.00 | 84 | 1015.3 |
| 20260507200057 | 53 | 113 | 1.7 | 5.2 | 0.00 | 0.00 | 0.00 | 83 | 1015.0 |
| 20260507194558 | 53 | 68 | 1.7 | 4.3 | 0.00 | 0.00 | 0.00 | 83 | 1014.9 |
| 20260507193056 | 53 | 55 | 0.9 | 5.2 | 0.00 | 0.00 | 0.00 | 82 | 1014.9 |
| 20260507191615 | 53 | 66 | 1.7 | 4.3 | 0.00 | 0.00 | 0.00 | 83 | 1014.8 |
| 20260507190052 | 53 | 51 | 0.9 | 5.2 | 0.00 | 0.00 | 0.00 | 82 | 1014.7 |
| 20260507184558 | 53 | 72 | 1.7 | 5.2 | 0.00 | 0.00 | 0.00 | 82 | 1014.8 |
| 20260507183053 | 53 | 65 | 1.7 | 6.1 | 0.00 | 0.00 | 0.00 | 81 | 1014.7 |
| 20260507181552 | 53 | 69 | 1.7 | 6.1 | 0.00 | 0.00 | 0.00 | 81 | 1014.7 |
| 20260507180051 | 53 | 57 | 2.6 | 9.6 | 0.00 | 0.00 | 0.00 | 81 | 1014.6 |
| 20260507174553 | 54 | 128 | 2.6 | 7.8 | 0.00 | 0.00 | 0.00 | 80 | 1014.6 |
| 20260507173054 | 54 | 106 | 3.5 | 7.8 | 0.00 | 0.00 | 0.00 | 80 | 1014.6 |
| 20260507171553 | 54 | 55 | 4.3 | 8.7 | 0.00 | 0.00 | 0.00 | 79 | 1014.5 |
| 20260507170055 | 54 | 68 | 1.7 | 8.7 | 0.00 | 0.00 | 0.00 | 78 | 1014.5 |
| 20260507164605 | 54 | 110 | 2.6 | 7.8 | 0.00 | 0.00 | 0.00 | 76 | 1014.6 |
| 20260507163050 | 55 | 70 | 2.6 | 7.0 | 0.00 | 0.00 | 0.00 | 74 | 1014.6 |
| 20260507161557 | 55 | 57 | 2.6 | 8.7 | 0.00 | 0.00 | 0.00 | 73 | 1014.7 |
| 20260507160048 | 55 | 145 | 2.6 | 8.7 | 0.00 | 0.00 | 0.00 | 74 | 1014.6 |
| 20260507154548 | 55 | 75 | 3.5 | 9.6 | 0.00 | 0.00 | 0.00 | 71 | 1014.7 |
| 20260507153050 | 56 | 65 | 2.6 | 7.0 | 0.00 | 0.00 | 0.00 | 70 | 1014.7 |
| 20260507151555 | 55 | 86 | 4.3 | 8.7 | 0.00 | 0.00 | 0.00 | 72 | 1014.6 |
| 20260507150057 | 54 | 68 | 4.3 | 10.4 | 0.00 | 0.00 | 0.00 | 72 | 1014.6 |
| 20260507144549 | 55 | 70 | 5.2 | 11.3 | 0.00 | 0.00 | 0.00 | 72 | 1014.7 |
| 20260507143106 | 54 | 80 | 3.5 | 8.7 | 0.00 | 0.00 | 0.00 | 72 | 1014.9 |
| 20260507141604 | 54 | 72 | 4.3 | 8.7 | 0.00 | 0.00 | 0.00 | 72 | 1015.0 |
| 20260507140052 | 54 | 105 | 2.6 | 7.8 | 0.00 | 0.00 | 0.00 | 71 | 1015.1 |
| 20260507134551 | 54 | 105 | 2.6 | 6.1 | 0.00 | 0.00 | 0.00 | 70 | 1015.0 |
| 20260507133051 | 55 | 131 | 1.7 | 7.0 | 0.00 | 0.00 | 0.00 | 68 | 1015.0 |
| 20260507131600 | 55 | 166 | 1.7 | 5.2 | 0.00 | 0.00 | 0.00 | 67 | 1015.0 |
| 20260507130053 | 55 | 137 | 1.7 | 5.2 | 0.00 | 0.00 | 0.00 | 68 | 1015.0 |
| 20260507124546 | 55 | 128 | 0.9 | 6.1 | 0.00 | 0.00 | 0.00 | 69 | 1015.1 |
| 20260507123104 | 55 | 72 | 1.7 | 6.1 | 0.00 | 0.00 | 0.00 | 71 | 1015.1 |
| 20260507121549 | 54 | 58 | 3.5 | 7.0 | 0.00 | 0.00 | 0.00 | 70 | 1015.1 |
| 20260507120051 | 54 | 57 | 4.3 | 7.8 | 0.00 | 0.00 | 0.00 | 71 | 1015.1 |
| 20260507114552 | 55 | 105 | 1.7 | 6.1 | 0.00 | 0.00 | 0.00 | 71 | 1015.1 |
| 20260507113047 | 54 | 59 | 1.7 | 7.8 | 0.00 | 0.00 | 0.00 | 71 | 1015.1 |
| 20260507111547 | 55 | 95 | 2.6 | 7.0 | 0.00 | 0.00 | 0.00 | 70 | 1015.1 |
| 20260507110052 | 55 | 85 | 1.7 | 5.2 | 0.00 | 0.00 | 0.00 | 70 | 1015.2 |
| 20260507104557 | 56 | 110 | 1.7 | 6.1 | 0.00 | 0.00 | 0.00 | 69 | 1015.3 |
| 20260507103045 | 56 | 95 | 1.7 | 7.8 | 0.00 | 0.00 | 0.00 | 69 | 1015.2 |
| 20260507101548 | 56 | 118 | 2.6 | 7.0 | 0.00 | 0.00 | 0.00 | 69 | 1015.2 |
| 20260507100059 | 55 | 68 | 0.9 | 5.2 | 0.00 | 0.00 | 0.00 | 72 | 1015.2 |
| 20260507094557 | 54 | 68 | 1.7 | 4.3 | 0.00 | 0.00 | 0.00 | 73 | 1015.2 |
| 20260507093051 | 54 | 46 | 0.0 | 4.3 | 0.00 | 0.00 | 0.00 | 73 | 1015.1 |
| 20260507091557 | 54 | 44 | 1.7 | 5.2 | 0.00 | 0.00 | 0.00 | 72 | 1015.2 |
| 20260507084555 | 53 | 0 | 0.9 | 3.5 | 0.00 | 0.00 | 0.00 | 75 | 1015.1 |
| 20260507083058 | 53 | 70 | 1.7 | 4.3 | 0.00 | 0.00 | 0.00 | 74 | 1015.0 |
| 20260507081602 | 52 | 59 | 0.9 | 3.5 | 0.00 | 0.00 | 0.00 | 77 | 1015.0 |
| 20260507074549 | 51 | 65 | 2.6 | 4.3 | 0.00 | 0.00 | 0.00 | 81 | 1015.0 |
| 20260507073049 | 51 | 72 | 0.9 | 4.3 | 0.00 | 0.00 | 0.00 | 83 | 1015.0 |
| 20260507071548 | 50 | 46 | 1.7 | 4.3 | 0.00 | 0.00 | 0.00 | 84 | 1014.9 |
| 20260507070103 | 49 | 69 | 1.7 | 4.3 | 0.00 | 0.00 | 0.00 | 85 | 1014.9 |
| 20260507064626 | 49 | 75 | 1.7 | 5.2 | 0.00 | 0.00 | 0.00 | 85 | 1014.8 |
| 20260507063058 | 48 | 80 | 0.9 | 4.3 | 0.00 | 0.00 | 0.00 | 86 | 1014.8 |
| 20260507061552 | 48 | 77 | 1.7 | 4.3 | 0.00 | 0.00 | 0.00 | 86 | 1014.6 |
| 20260507060111 | 47 | 61 | 1.7 | 5.2 | 0.00 | 0.00 | 0.00 | 87 | 1014.6 |
| 20260507054609 | 47 | 68 | 1.7 | 5.2 | 0.00 | 0.00 | 0.00 | 87 | 1014.5 |
| 20260507053051 | 47 | 75 | 1.7 | 4.3 | 0.00 | 0.00 | 0.00 | 87 | 1014.3 |
| 20260507051604 | 47 | 50 | 0.9 | 4.3 | 0.00 | 0.00 | 0.00 | 87 | 1014.3 |
| 20260507050055 | 47 | 87 | 0.9 | 3.5 | 0.00 | 0.00 | 0.00 | 87 | 1014.1 |
| 20260507044550 | 47 | 29 | 0.9 | 2.6 | 0.00 | 0.00 | 0.00 | 87 | 1014.1 |
| 20260507043056 | 46 | 0 | 0.0 | 1.7 | 0.00 | 0.00 | 0.00 | 87 | 1014.0 |
| 20260507041547 | 47 | 0 | 0.0 | 2.6 | 0.00 | 0.00 | 0.00 | 87 | 1014.0 |
| 20260507040049 | 47 | 69 | 0.0 | 3.5 | 0.00 | 0.00 | 0.00 | 87 | 1013.8 |
| 20260507034551 | 47 | 38 | 0.9 | 2.6 | 0.00 | 0.00 | 0.00 | 87 | 1014.0 |
| 20260507033050 | 47 | 75 | 0.9 | 2.6 | 0.00 | 0.00 | 0.00 | 87 | 1013.9 |
| 20260507031548 | 47 | 0 | 0.0 | 0.9 | 0.00 | 0.00 | 0.00 | 87 | 1013.9 |
| 20260507030053 | 47 | 0 | 0.0 | 0.0 | 0.00 | 0.00 | 0.00 | 87 | 1013.9 |
| 20260507024555 | 47 | 0 | 0.0 | 3.5 | 0.00 | 0.00 | 0.00 | 87 | 1013.9 |
| 20260507023051 | 47 | 0 | 0.9 | 2.6 | 0.00 | 0.00 | 0.00 | 87 | 1013.8 |
| 20260507021553 | 47 | 0 | 0.0 | 0.0 | 0.00 | 0.00 | 0.00 | 87 | 1013.7 |
| 20260507020108 | 47 | 0 | 0.0 | 3.5 | 0.00 | 0.00 | 0.00 | 87 | 1013.7 |
| 20260507014556 | 47 | 80 | 0.9 | 2.6 | 0.00 | 0.00 | 0.00 | 86 | 1013.6 |
| 20260507013047 | 48 | 77 | 0.9 | 3.5 | 0.00 | 0.00 | 0.00 | 86 | 1013.6 |
| 20260507011547 | 48 | 64 | 0.9 | 3.5 | 0.00 | 0.00 | 0.00 | 86 | 1013.6 |
| 20260507010059 | 48 | 94 | 0.9 | 3.5 | 0.00 | 0.00 | 0.00 | 86 | 1013.6 |
| 20260507004551 | 48 | 79 | 0.9 | 1.7 | 0.00 | 0.00 | 0.00 | 86 | 1013.6 |
| 20260507003050 | 49 | 82 | 0.9 | 2.6 | 0.00 | 0.00 | 0.00 | 85 | 1013.6 |
| 20260507001557 | 49 | 65 | 0.9 | 2.6 | 0.00 | 0.00 | 0.00 | 85 | 1013.6 |
| 20260507000048 | 49 | 0 | 1.7 | 4.3 | 0.00 | 0.00 | 0.00 | 85 | 1013.7 |
| 20260506234558 | 49 | 70 | 1.7 | 3.5 | 0.00 | 0.00 | 0.00 | 85 | 1013.6 |
| 20260506233052 | 49 | 80 | 0.9 | 2.6 | 0.00 | 0.00 | 0.00 | 85 | 1013.6 |
| 20260506231607 | 49 | 95 | 0.9 | 3.5 | 0.00 | 0.00 | 0.00 | 85 | 1013.6 |
| 20260506230109 | 49 | 67 | 0.0 | 2.6 | 0.00 | 0.00 | 0.00 | 85 | 1013.6 |
| 20260506224553 | 49 | 50 | 0.9 | 4.3 | 0.00 | 0.00 | 0.00 | 85 | 1013.6 |